Weather History for Spokane Fairchild, WA

Change the Weather History Date:

Friday, April 25, 2014

  Actual Average Record
Temperature  
Mean Temperature 45 °F -  
Max Temperature 51 °F 58 °F 75 °F (2001)
Min Temperature 39 °F 36 °F 28 °F (1998)
Degree Days  
Heating Degree Days 20    
Moisture  
Dew Point 37 °F    
Average Humidity 75    
Maximum Humidity 93    
Minimum Humidity 54    
Precipitation  
Precipitation 0.00 in - - ()
Sea Level Pressure  
Sea Level Pressure 29.75 in    
Wind  
Wind Speed 8 mph (SW)    
Max Wind Speed 16 mph    
Max Gust Speed -    
Visibility 10 miles    
Events Rain    
Averages and records for this station are not official NWS values.
T = Trace of Precipitation, MM = Missing Value Source: NWS Daily Summary

Daily Weather History Graph

Daily Weather History Graph

Search for Another Location

Airport:

Trip Planner

Search our weather history database for the weather conditions in past years. The results will help you decide how hot, cold, wet, or windy it might be!

Date:

Astronomy

Apr. 25, 2014 Rise Set
Actual Time 5:43 AM PDT 7:54 PM PDT
Civil Twilight 5:09 AM PDT 8:28 PM PDT
Nautical Twilight 4:28 AM PDT 9:10 PM PDT
Astronomical Twilight 3:41 AM PDT 9:57 PM PDT
Moon 3:51 AM PDT (4/25) 4:07 PM PDT (4/25)
Length of Visible Light 15h 18m
Length of Day
14h 11m
Waning Crescent, 14% of the Moon is Illuminated
Apr 25
Waning Crescent
Apr 28
New
May 6
First Quarter
May 14
Full
May 21
Last Quarter

Hourly Weather History & Observations

Time (PDT) Temp. Windchill Dew Point Humidity Pressure Visibility Wind Dir Wind Speed Gust Speed Precip Events Conditions
12:52 AM 42.8 °F 38.6 °F 35.6 °F 76% 29.79 in 10.0 mi South 6.9 mph - N/A   Overcast
12:58 AM 42.4 °F 37.0 °F 36.5 °F 79% 29.81 in 10.0 mi South 9.2 mph - 0.00 in   Overcast
1:19 AM 42.8 °F 37.5 °F 35.6 °F 76% 29.79 in 10.0 mi South 9.2 mph - N/A   Overcast
1:58 AM 41.0 °F 39.0 °F 36.1 °F 83% 29.80 in 10.0 mi SSE 3.5 mph - 0.00 in   Clear
2:58 AM 40.1 °F 32.4 °F 36.1 °F 86% 29.81 in 10.0 mi South 13.8 mph - 0.00 in   Clear
3:02 AM 39.2 °F 31.6 °F 35.6 °F 87% 29.78 in 10.0 mi South 12.7 mph - N/A   Partly Cloudy
3:03 AM 39.2 °F 31.2 °F 35.6 °F 87% 29.78 in 10.0 mi South 13.8 mph - N/A   Partly Cloudy
3:58 AM 39.9 °F 33.4 °F 35.1 °F 83% 29.80 in 10.0 mi South 10.4 mph - 0.00 in   Clear
4:58 AM 39.6 °F 34.0 °F 34.5 °F 82% 29.79 in 10.0 mi South 8.1 mph - 0.00 in   Clear
5:58 AM 39.0 °F - 35.2 °F 86% 29.79 in 10.0 mi Variable 2.3 mph - N/A   Clear
6:58 AM 39.6 °F 35.4 °F 36.1 °F 88% 29.82 in 10.0 mi Variable 5.8 mph - N/A   Mostly Cloudy
7:13 AM 39.2 °F 35.0 °F 37.4 °F 93% 29.78 in 10.0 mi SSW 5.8 mph - N/A   Scattered Clouds
7:16 AM 39.2 °F 34.2 °F 37.4 °F 93% 29.78 in 10.0 mi SSW 6.9 mph - N/A   Scattered Clouds
7:58 AM 40.8 °F 37.8 °F 36.5 °F 85% 29.82 in 10.0 mi SW 4.6 mph - 0.00 in   Mostly Cloudy
8:02 AM 41.0 °F 38.0 °F 37.4 °F 87% 29.79 in 10.0 mi South 4.6 mph - N/A   Mostly Cloudy
8:23 AM 41.0 °F - 35.6 °F 81% 29.79 in 10.0 mi SSW 2.3 mph - N/A   Mostly Cloudy
8:38 AM 41.0 °F 38.0 °F 37.4 °F 87% 29.80 in 10.0 mi South 4.6 mph - N/A   Overcast
8:58 AM 41.7 °F 38.8 °F 36.3 °F 81% 29.80 in 10.0 mi SSW 4.6 mph - 0.00 in   Overcast
9:18 AM 42.8 °F - 35.6 °F 76% 29.79 in 10.0 mi Variable 1.2 mph - N/A   Overcast
9:58 AM 44.6 °F 42.2 °F 36.7 °F 74% 29.81 in 10.0 mi WSW 4.6 mph - N/A   Overcast
10:58 AM 48.0 °F - 35.6 °F 62% 29.80 in 10.0 mi NE 3.5 mph - N/A   Overcast
11:18 AM 48.2 °F - 35.6 °F 62% 29.76 in 10.0 mi Calm Calm - N/A   Overcast
11:33 AM 48.2 °F - 32.0 °F 54% 29.76 in 10.0 mi Variable 2.3 mph - N/A   Overcast
11:58 AM 49.3 °F - 35.2 °F 58% 29.78 in 10.0 mi Variable 2.3 mph - N/A   Overcast
12:58 PM 49.5 °F - 34.2 °F 56% 29.77 in 10.0 mi NNE 3.5 mph - N/A   Mostly Cloudy
1:58 PM 49.5 °F - 35.8 °F 59% 29.76 in 10.0 mi Variable 4.6 mph - N/A   Overcast
2:32 PM 50.0 °F - 35.6 °F 58% 29.72 in 10.0 mi WSW 9.2 mph - N/A Rain Light Rain
2:58 PM 50.5 °F - 36.5 °F 59% 29.75 in 10.0 mi WSW 6.9 mph - 0.00 in Rain Light Rain
3:14 PM 51.8 °F - 35.6 °F 54% 29.71 in 10.0 mi WSW 5.8 mph - N/A   Mostly Cloudy
3:58 PM 51.8 °F - 37.8 °F 59% 29.73 in 10.0 mi West 16.1 mph - 0.00 in   Mostly Cloudy
4:41 PM 50.0 °F - 39.2 °F 66% 29.70 in 10.0 mi WSW 15.0 mph - N/A Rain Light Rain
4:52 PM 50.0 °F - 37.4 °F 62% 29.70 in 10.0 mi West 13.8 mph - N/A   Overcast
4:58 PM 49.5 °F - 37.9 °F 65% 29.73 in 10.0 mi West 13.8 mph - 0.00 in   Overcast
5:58 PM 49.6 °F - 37.2 °F 62% 29.73 in 10.0 mi West 12.7 mph - N/A   Overcast
6:29 PM 48.2 °F - 37.4 °F 66% 29.70 in 10.0 mi WNW 12.7 mph - N/A   Light Drizzle
6:39 PM 48.2 °F - 37.4 °F 66% 29.70 in 10.0 mi WNW 11.5 mph - N/A   Overcast
6:58 PM 48.4 °F - 36.5 °F 64% 29.73 in 10.0 mi WNW 9.2 mph - 0.00 in   Overcast
7:07 PM 48.2 °F - 37.4 °F 66% 29.70 in 10.0 mi WNW 12.7 mph - N/A Rain Light Rain
7:58 PM 45.7 °F 39.8 °F 38.8 °F 77% 29.73 in 10.0 mi West 12.7 mph - 0.00 in Rain Light Rain
8:07 PM 46.4 °F 41.5 °F 37.4 °F 71% 29.71 in 10.0 mi West 10.4 mph - N/A   Overcast
8:09 PM 46.4 °F 41.1 °F 37.4 °F 71% 29.71 in 10.0 mi West 11.5 mph - N/A Rain Light Rain
8:34 PM 44.6 °F 38.8 °F 39.2 °F 81% 29.71 in 10.0 mi West 11.5 mph - N/A   Overcast
8:35 PM 44.6 °F 38.8 °F 39.2 °F 81% 29.71 in 10.0 mi West 11.5 mph - N/A Rain Light Rain
9:58 PM 42.6 °F 37.8 °F 38.7 °F 86% 29.73 in 10.0 mi WSW 8.1 mph - 0.00 in   Overcast
10:42 PM 42.8 °F 38.0 °F 37.4 °F 81% 29.69 in 10.0 mi WSW 8.1 mph - N/A Rain Light Rain
10:58 PM 42.4 °F 37.0 °F 38.7 °F 86% 29.72 in 10.0 mi West 9.2 mph - 0.00 in Rain Light Rain
11:07 PM 42.8 °F 38.6 °F 39.2 °F 87% 29.68 in 10.0 mi WSW 6.9 mph - N/A   Overcast
11:27 PM 42.8 °F 38.0 °F 39.2 °F 87% 29.68 in 10.0 mi WSW 8.1 mph - N/A Rain Light Rain
11:37 PM 42.8 °F 37.5 °F 39.2 °F 87% 29.68 in 10.0 mi WSW 9.2 mph - N/A   Overcast
11:54 PM 42.8 °F 38.6 °F 39.2 °F 87% 29.68 in 10.0 mi WSW 6.9 mph - N/A Rain Light Rain
11:58 PM 41.9 °F 37.5 °F 39.0 °F 90% 29.70 in 10.0 mi WSW 6.9 mph - 0.00 in Rain Light Rain